SYN001 KJAX-KFLL

Flight info

Callsign SYN001
Flight time 1h 26m
Altitude 35000
Route EXBOX2 EXBOX PRMUS CUUDA3
Aircraft BCS3/M-SBDE2E3GIRWXY/LB1

Departure

Time 2026-05-03 21:19
Airport Jacksonville International Airport (KJAX)

Arrival

Time 2026-05-03 22:45
Airport Fort Lauderdale Hollywood International Airport (KFLL)
Time Latitude Longitude Altitude Speed Heading
2026-05-03 20:50 30.49082 -81.68656 42 ft 0 kts 115°
2026-05-03 21:04 30.49088 -81.68672 42 ft 3 kts 115°
2026-05-03 21:04 30.49096 -81.68691 55 ft 3 kts 115°
2026-05-03 21:04 30.49104 -81.68711 40 ft 3 kts 115°
2026-05-03 21:04 30.49112 -81.68731 42 ft 3 kts 115°
2026-05-03 21:05 30.49114 -81.68737 42 ft 0 kts 115°
2026-05-03 21:06 30.49110 -81.68726 42 ft 13 kts 115°
2026-05-03 21:06 30.49081 -81.68654 42 ft 0 kts 115°
2026-05-03 21:07 30.49085 -81.68665 42 ft 2 kts 115°
2026-05-03 21:07 30.49092 -81.68681 39 ft 2 kts 115°
2026-05-03 21:08 30.49098 -81.68696 40 ft 2 kts 115°
2026-05-03 21:08 30.49104 -81.68711 41 ft 2 kts 115°
2026-05-03 21:08 30.49110 -81.68727 42 ft 2 kts 115°
2026-05-03 21:08 30.49115 -81.68739 42 ft 0 kts 115°
2026-05-03 21:12 30.49114 -81.68735 42 ft 1 kts 115°
2026-05-03 21:12 30.49111 -81.68733 42 ft 0 kts 135°
2026-05-03 21:13 30.49110 -81.68733 42 ft 0 kts 154°
2026-05-03 21:13 30.49109 -81.68734 42 ft 0 kts 169°
2026-05-03 21:13 30.49085 -81.68738 42 ft 10 kts 194°
2026-05-03 21:13 30.49022 -81.68789 38 ft 13 kts 235°
2026-05-03 21:14 30.49031 -81.68848 38 ft 6 kts 303°
2026-05-03 21:14 30.49053 -81.68891 40 ft 7 kts 298°
2026-05-03 21:14 30.49104 -81.69016 40 ft 21 kts 281°
2026-05-03 21:14 30.49030 -81.69162 40 ft 22 kts 230°
2026-05-03 21:15 30.48931 -81.69304 36 ft 23 kts 232°
2026-05-03 21:15 30.48960 -81.69443 36 ft 19 kts 311°
2026-05-03 21:15 30.49046 -81.69559 37 ft 19 kts 311°
2026-05-03 21:15 30.49133 -81.69674 39 ft 20 kts 311°
2026-05-03 21:16 30.49204 -81.69774 37 ft 6 kts 310°
2026-05-03 21:16 30.49232 -81.69814 37 ft 7 kts 310°
2026-05-03 21:16 30.49265 -81.69858 38 ft 8 kts 312°
2026-05-03 21:16 30.49306 -81.69912 37 ft 10 kts 310°
2026-05-03 21:17 30.49299 -81.69986 34 ft 11 kts 233°
2026-05-03 21:17 30.49236 -81.70047 36 ft 12 kts 218°
2026-05-03 21:17 30.49184 -81.70033 37 ft 7 kts 139°
2026-05-03 21:17 30.49153 -81.69994 38 ft 7 kts 133°
2026-05-03 21:18 30.49118 -81.69950 38 ft 8 kts 133°
2026-05-03 21:18 30.49051 -81.69863 37 ft 36 kts 131°
2026-05-03 21:18 30.48707 -81.69393 32 ft 116 kts 130°
2026-05-03 21:18 30.48076 -81.68535 402 ft 146 kts 126°
2026-05-03 21:19 30.47378 -81.67620 1258 ft 154 kts 128°
2026-05-03 21:19 30.46634 -81.66688 2190 ft 163 kts 130°
2026-05-03 21:19 30.45842 -81.65715 3120 ft 175 kts 130°
2026-05-03 21:19 30.44901 -81.64531 3273 ft 223 kts 133°
2026-05-03 21:20 30.43706 -81.63170 3822 ft 250 kts 135°
2026-05-03 21:20 30.42439 -81.61750 4512 ft 264 kts 135°
2026-05-03 21:20 30.41081 -81.60231 5384 ft 274 kts 136°
2026-05-03 21:20 30.39686 -81.58669 6270 ft 285 kts 137°
2026-05-03 21:21 30.38258 -81.57074 7231 ft 288 kts 137°
2026-05-03 21:21 30.36798 -81.55446 8187 ft 292 kts 138°
2026-05-03 21:21 30.35321 -81.53800 9111 ft 297 kts 138°
2026-05-03 21:21 30.33815 -81.52122 10058 ft 303 kts 138°
2026-05-03 21:22 30.32261 -81.50392 10664 ft 319 kts 139°
2026-05-03 21:22 30.30620 -81.48568 11143 ft 335 kts 139°
2026-05-03 21:22 30.28908 -81.46666 11753 ft 344 kts 140°
2026-05-03 21:22 30.27167 -81.44729 12483 ft 349 kts 140°
2026-05-03 21:23 30.25420 -81.42786 13204 ft 354 kts 141°
2026-05-03 21:23 30.23629 -81.40796 13945 ft 359 kts 141°
2026-05-03 21:23 30.21815 -81.38781 14632 ft 363 kts 141°
2026-05-03 21:23 30.19962 -81.36727 14977 ft 373 kts 141°
2026-05-03 21:24 30.18095 -81.34655 15019 ft 367 kts 141°
2026-05-03 21:24 30.16264 -81.32619 15017 ft 365 kts 141°
2026-05-03 21:24 30.14428 -81.30584 15008 ft 367 kts 141°
2026-05-03 21:24 30.12591 -81.28545 15003 ft 365 kts 142°
2026-05-03 21:25 30.10778 -81.26587 14996 ft 363 kts 148°
2026-05-03 21:25 30.08568 -81.25196 15688 ft 352 kts 162°
2026-05-03 21:25 30.06295 -81.24076 16362 ft 356 kts 163°
2026-05-03 21:25 30.04000 -81.22965 17057 ft 360 kts 164°
2026-05-03 21:26 30.01683 -81.21845 17751 ft 363 kts 164°
2026-05-03 21:26 29.99338 -81.20712 18425 ft 366 kts 164°
2026-05-03 21:26 29.96974 -81.19570 19014 ft 369 kts 164°
2026-05-03 21:26 29.94620 -81.18433 19574 ft 373 kts 165°
2026-05-03 21:27 29.92202 -81.17266 19988 ft 380 kts 165°
2026-05-03 21:27 29.89755 -81.16085 20117 ft 381 kts 165°
2026-05-03 21:27 29.87334 -81.14910 20134 ft 375 kts 165°
2026-05-03 21:27 29.84919 -81.13742 20126 ft 377 kts 165°
2026-05-03 21:28 29.82495 -81.12570 20127 ft 377 kts 165°
2026-05-03 21:28 29.80111 -81.11407 20172 ft 380 kts 165°
2026-05-03 21:28 29.77686 -81.10216 20867 ft 379 kts 165°
2026-05-03 21:28 29.75245 -81.09020 21423 ft 382 kts 165°
2026-05-03 21:29 29.72789 -81.07816 21938 ft 385 kts 165°
2026-05-03 21:29 29.70312 -81.06602 22470 ft 388 kts 165°
2026-05-03 21:29 29.67819 -81.05382 22988 ft 391 kts 165°
2026-05-03 21:29 29.65303 -81.04150 23488 ft 394 kts 165°
2026-05-03 21:30 29.62773 -81.02912 23953 ft 396 kts 166°
2026-05-03 21:30 29.60229 -81.01667 24392 ft 398 kts 166°
2026-05-03 21:30 29.57680 -81.00420 24829 ft 399 kts 166°
2026-05-03 21:30 29.55122 -80.99170 25242 ft 400 kts 166°
2026-05-03 21:31 29.52547 -80.97913 25637 ft 402 kts 166°
2026-05-03 21:31 29.49974 -80.96656 26041 ft 403 kts 166°
2026-05-03 21:31 29.47383 -80.95392 26438 ft 405 kts 166°
2026-05-03 21:31 29.44816 -80.94141 26803 ft 406 kts 166°
2026-05-03 21:32 29.42206 -80.92869 27173 ft 407 kts 167°
2026-05-03 21:32 29.39589 -80.91594 27535 ft 409 kts 167°
2026-05-03 21:32 29.36966 -80.90317 27889 ft 410 kts 167°
2026-05-03 21:32 29.34328 -80.89034 28231 ft 411 kts 167°
2026-05-03 21:33 29.31696 -80.87755 28551 ft 413 kts 167°
2026-05-03 21:33 29.29045 -80.86466 28876 ft 414 kts 167°
2026-05-03 21:33 29.26381 -80.85172 29177 ft 415 kts 167°
2026-05-03 21:33 29.23721 -80.83881 29468 ft 417 kts 167°
2026-05-03 21:34 29.21040 -80.82581 29756 ft 418 kts 167°
2026-05-03 21:34 29.18356 -80.81280 30006 ft 419 kts 167°
2026-05-03 21:34 29.15664 -80.79975 30251 ft 420 kts 167°
2026-05-03 21:34 29.13009 -80.78690 30426 ft 423 kts 167°
2026-05-03 21:35 29.10287 -80.77373 30600 ft 424 kts 167°
2026-05-03 21:35 29.07559 -80.76053 30779 ft 426 kts 167°
2026-05-03 21:35 29.04818 -80.74728 30957 ft 428 kts 168°
2026-05-03 21:35 29.02072 -80.73401 31105 ft 429 kts 168°
2026-05-03 21:36 28.99312 -80.72068 31254 ft 431 kts 168°
2026-05-03 21:36 28.96550 -80.70742 31398 ft 432 kts 168°
2026-05-03 21:36 28.93765 -80.69478 31549 ft 432 kts 169°
2026-05-03 21:36 28.90957 -80.68224 31685 ft 433 kts 169°
2026-05-03 21:37 28.88146 -80.66970 31800 ft 435 kts 169°
2026-05-03 21:37 28.85331 -80.65715 31948 ft 436 kts 170°
2026-05-03 21:37 28.82498 -80.64450 32077 ft 437 kts 170°
2026-05-03 21:37 28.79669 -80.63188 32197 ft 438 kts 170°
2026-05-03 21:38 28.76823 -80.61919 32315 ft 439 kts 170°
2026-05-03 21:38 28.73969 -80.60646 32417 ft 440 kts 170°
2026-05-03 21:38 28.68272 -80.58103 32047 ft 437 kts 170°
2026-05-03 21:39 28.65457 -80.56848 31550 ft 431 kts 169°
2026-05-03 21:39 28.62707 -80.55622 31033 ft 427 kts 169°
2026-05-03 21:39 28.59971 -80.54404 30531 ft 422 kts 169°
2026-05-03 21:39 28.57240 -80.53188 30126 ft 415 kts 168°
2026-05-03 21:40 28.54582 -80.52002 30019 ft 408 kts 168°
2026-05-03 21:40 28.51920 -80.50823 30029 ft 413 kts 168°
2026-05-03 21:40 28.46468 -80.48413 30034 ft 426 kts 168°
2026-05-03 21:41 28.41024 -80.45991 30042 ft 413 kts 168°
2026-05-03 21:41 28.35602 -80.43594 30046 ft 423 kts 168°
2026-05-03 21:42 28.30178 -80.41192 30044 ft 418 kts 168°
2026-05-03 21:42 28.24751 -80.38795 30050 ft 422 kts 168°
2026-05-03 21:43 28.19273 -80.36376 30045 ft 421 kts 168°
2026-05-03 21:43 28.13812 -80.33967 30047 ft 422 kts 168°
2026-05-03 21:44 28.08317 -80.31582 30052 ft 420 kts 170°
2026-05-03 21:44 28.02794 -80.29418 30054 ft 421 kts 171°
2026-05-03 21:45 27.97233 -80.27254 30050 ft 421 kts 171°
2026-05-03 21:45 27.91747 -80.25117 30053 ft 422 kts 171°
2026-05-03 21:46 27.86175 -80.22947 30059 ft 422 kts 171°
2026-05-03 21:46 27.80612 -80.20781 30056 ft 423 kts 170°
2026-05-03 21:47 27.75038 -80.18612 30056 ft 423 kts 171°
2026-05-03 21:47 27.69472 -80.16449 30055 ft 423 kts 170°
2026-05-03 21:48 27.63895 -80.14282 30051 ft 423 kts 171°
2026-05-03 21:48 27.58346 -80.12054 30049 ft 425 kts 169°
2026-05-03 21:49 27.52764 -80.09746 30046 ft 425 kts 169°
2026-05-03 21:49 27.47237 -80.07466 30046 ft 426 kts 169°
2026-05-03 21:50 27.44445 -80.06318 29622 ft 433 kts 169°
2026-05-03 21:50 27.41603 -80.05150 28876 ft 434 kts 169°
2026-05-03 21:50 27.38784 -80.03999 28325 ft 424 kts 171°
2026-05-03 21:50 27.36002 -80.03066 27800 ft 413 kts 173°
2026-05-03 21:51 27.33246 -80.02218 27264 ft 406 kts 174°
2026-05-03 21:51 27.30530 -80.01391 26735 ft 401 kts 174°
2026-05-03 21:51 27.27846 -80.00574 26203 ft 398 kts 174°
2026-05-03 21:51 27.25177 -79.99742 25682 ft 399 kts 172°
2026-05-03 21:52 27.22570 -79.98822 25163 ft 397 kts 171°
2026-05-03 21:52 27.19953 -79.97874 24643 ft 393 kts 171°
2026-05-03 21:52 27.17357 -79.96932 24124 ft 391 kts 171°
2026-05-03 21:52 27.14774 -79.95998 23611 ft 388 kts 171°
2026-05-03 21:53 27.12209 -79.95071 23022 ft 385 kts 170°
2026-05-03 21:53 27.09667 -79.94152 22527 ft 381 kts 170°
2026-05-03 21:53 27.07143 -79.93240 22027 ft 381 kts 170°
2026-05-03 21:53 27.04638 -79.92261 21515 ft 382 kts 168°
2026-05-03 21:54 27.02154 -79.91253 21025 ft 378 kts 168°
2026-05-03 21:54 26.99681 -79.90250 20515 ft 375 kts 167°
2026-05-03 21:54 26.97231 -79.89258 20033 ft 375 kts 167°
2026-05-03 21:54 26.94784 -79.88268 19527 ft 371 kts 167°
2026-05-03 21:55 26.92363 -79.87289 19047 ft 369 kts 167°
2026-05-03 21:55 26.89950 -79.86315 18560 ft 367 kts 167°
2026-05-03 21:55 26.87577 -79.85358 18058 ft 366 kts 167°
2026-05-03 21:55 26.85194 -79.84398 17554 ft 363 kts 166°
2026-05-03 21:56 26.82829 -79.83444 17091 ft 359 kts 166°
2026-05-03 21:56 26.80480 -79.82498 16615 ft 358 kts 166°
2026-05-03 21:56 26.78157 -79.81564 16122 ft 352 kts 166°
2026-05-03 21:56 26.75865 -79.80640 15660 ft 347 kts 166°
2026-05-03 21:57 26.73598 -79.79731 15213 ft 346 kts 166°
2026-05-03 21:57 26.71307 -79.78959 14672 ft 340 kts 178°
2026-05-03 21:57 26.69023 -79.79082 14262 ft 322 kts 197°
2026-05-03 21:57 26.66873 -79.79726 13867 ft 321 kts 201°
2026-05-03 21:58 26.64755 -79.80504 13398 ft 319 kts 203°
2026-05-03 21:58 26.62681 -79.81317 12978 ft 314 kts 204°
2026-05-03 21:58 26.60622 -79.82144 12569 ft 315 kts 204°
2026-05-03 21:58 26.58567 -79.82975 12158 ft 313 kts 204°
2026-05-03 21:59 26.56537 -79.83795 11753 ft 307 kts 204°
2026-05-03 21:59 26.54595 -79.84614 11365 ft 297 kts 206°
2026-05-03 21:59 26.52715 -79.85489 10995 ft 289 kts 207°
2026-05-03 21:59 26.50877 -79.86354 10779 ft 285 kts 207°
2026-05-03 22:00 26.48993 -79.87247 10979 ft 298 kts 206°
2026-05-03 22:00 26.47142 -79.88116 11008 ft 283 kts 207°
2026-05-03 22:00 26.45318 -79.88974 11007 ft 284 kts 207°
2026-05-03 22:00 26.43495 -79.89833 10995 ft 281 kts 207°
2026-05-03 22:01 26.42304 -79.90392 10691 ft 282 kts 206°
2026-05-03 22:01 26.40505 -79.91236 10385 ft 279 kts 207°
2026-05-03 22:01 26.38703 -79.92089 9936 ft 282 kts 208°
2026-05-03 22:01 26.36976 -79.93107 9440 ft 280 kts 213°
2026-05-03 22:02 26.35296 -79.94187 9074 ft 273 kts 213°
2026-05-03 22:02 26.33642 -79.95254 9001 ft 276 kts 213°
2026-05-03 22:02 26.31974 -79.96331 8999 ft 277 kts 213°
2026-05-03 22:02 26.30303 -79.97407 8981 ft 275 kts 213°
2026-05-03 22:03 26.28677 -79.98454 8992 ft 274 kts 213°
2026-05-03 22:03 26.27028 -79.99514 8997 ft 276 kts 213°
2026-05-03 22:03 26.25357 -80.00588 8997 ft 275 kts 213°
2026-05-03 22:03 26.23699 -80.01655 9001 ft 276 kts 213°
2026-05-03 22:04 26.22043 -80.02719 8983 ft 272 kts 213°
2026-05-03 22:04 26.20400 -80.03774 8379 ft 274 kts 213°
2026-05-03 22:04 26.18822 -80.04920 7767 ft 272 kts 226°
2026-05-03 22:04 26.17800 -80.06634 7296 ft 264 kts 246°
2026-05-03 22:05 26.17110 -80.08545 6741 ft 265 kts 250°
2026-05-03 22:05 26.16504 -80.10467 6272 ft 263 kts 251°
2026-05-03 22:05 26.15916 -80.12393 6024 ft 262 kts 252°
2026-05-03 22:05 26.15328 -80.14328 5985 ft 264 kts 252°
2026-05-03 22:06 26.15053 -80.16293 5980 ft 260 kts 267°
2026-05-03 22:06 26.15027 -80.18353 5944 ft 266 kts 269°
2026-05-03 22:06 26.15033 -80.20390 5501 ft 266 kts 270°
2026-05-03 22:06 26.15043 -80.22456 4909 ft 268 kts 269°
2026-05-03 22:07 26.15054 -80.24526 4286 ft 260 kts 269°
2026-05-03 22:07 26.15062 -80.26470 3669 ft 244 kts 270°
2026-05-03 22:07 26.15070 -80.28310 3151 ft 231 kts 270°
2026-05-03 22:07 26.15077 -80.30009 2997 ft 215 kts 270°
2026-05-03 22:08 26.15082 -80.31691 3002 ft 216 kts 270°
2026-05-03 22:08 26.15085 -80.33358 3000 ft 215 kts 270°
2026-05-03 22:08 26.15091 -80.35078 3015 ft 230 kts 271°
2026-05-03 22:08 26.15082 -80.36847 2998 ft 227 kts 270°
2026-05-03 22:09 26.15067 -80.38597 2977 ft 221 kts 269°
2026-05-03 22:09 26.15054 -80.40246 3005 ft 217 kts 269°
2026-05-03 22:09 26.15037 -80.41961 3002 ft 224 kts 269°
2026-05-03 22:10 26.15012 -80.45498 3025 ft 233 kts 269°
2026-05-03 22:10 26.14994 -80.47323 3020 ft 240 kts 268°
2026-05-03 22:10 26.14973 -80.49236 3013 ft 255 kts 270°
2026-05-03 22:10 26.14761 -80.51224 2982 ft 263 kts 248°
2026-05-03 22:11 26.13625 -80.52787 2979 ft 265 kts 214°
2026-05-03 22:11 26.11920 -80.53329 2998 ft 258 kts 178°
2026-05-03 22:11 26.10246 -80.52666 3010 ft 256 kts 142°
2026-05-03 22:11 26.09189 -80.51113 3013 ft 258 kts 119°
2026-05-03 22:12 26.08705 -80.49234 2972 ft 246 kts 100°
2026-05-03 22:12 26.08464 -80.47413 2967 ft 232 kts 97°
2026-05-03 22:12 26.08292 -80.45673 2972 ft 225 kts 96°
2026-05-03 22:12 26.08156 -80.43881 2991 ft 235 kts 94°
2026-05-03 22:13 26.08059 -80.42089 2981 ft 227 kts 93°
2026-05-03 22:13 26.07987 -80.40391 2995 ft 214 kts 92°
2026-05-03 22:13 26.07931 -80.38753 2993 ft 208 kts 92°
2026-05-03 22:13 26.07880 -80.37183 3034 ft 203 kts 91°
2026-05-03 22:14 26.07843 -80.35600 2994 ft 209 kts 91°
2026-05-03 22:14 26.07828 -80.34011 2956 ft 200 kts 91°
2026-05-03 22:14 26.07810 -80.32465 2793 ft 203 kts 90°
2026-05-03 22:14 26.07792 -80.30894 2529 ft 203 kts 90°
2026-05-03 22:15 26.07705 -80.29339 2241 ft 202 kts 100°
2026-05-03 22:15 26.07410 -80.27810 1962 ft 202 kts 104°
2026-05-03 22:15 26.07052 -80.26280 1677 ft 206 kts 104°
2026-05-03 22:15 26.06692 -80.24757 1424 ft 204 kts 101°
2026-05-03 22:16 26.06586 -80.23205 1209 ft 200 kts 88°
2026-05-03 22:16 26.06631 -80.21673 993 ft 198 kts 88°
2026-05-03 22:16 26.06619 -80.20155 764 ft 194 kts 89°
2026-05-03 22:16 26.06519 -80.18641 522 ft 213 kts 99°
2026-05-03 22:17 26.06527 -80.16895 1195 ft 232 kts 83°
2026-05-03 22:17 26.06618 -80.15078 2074 ft 238 kts 95°
2026-05-03 22:17 26.06116 -80.13369 2199 ft 228 kts 119°
2026-05-03 22:17 26.05347 -80.11840 2078 ft 224 kts 121°
2026-05-03 22:18 26.04583 -80.10345 2025 ft 220 kts 120°
2026-05-03 22:18 26.03821 -80.08878 2009 ft 218 kts 121°
2026-05-03 22:18 26.03070 -80.07438 2022 ft 211 kts 121°
2026-05-03 22:18 26.02345 -80.06050 1998 ft 204 kts 121°
2026-05-03 22:19 26.01653 -80.04721 1989 ft 198 kts 121°
2026-05-03 22:19 26.00957 -80.03388 1988 ft 196 kts 121°
2026-05-03 22:19 26.00259 -80.02076 2002 ft 199 kts 121°
2026-05-03 22:19 25.99564 -80.00767 2000 ft 200 kts 121°
2026-05-03 22:20 25.98882 -79.99419 1979 ft 199 kts 121°
2026-05-03 22:20 25.98203 -79.98072 1977 ft 200 kts 120°
2026-05-03 22:20 25.97526 -79.96733 1976 ft 198 kts 121°
2026-05-03 22:20 25.96841 -79.95388 1988 ft 202 kts 121°
2026-05-03 22:21 25.96158 -79.94056 1981 ft 195 kts 121°
2026-05-03 22:21 25.95471 -79.92738 1983 ft 199 kts 120°
2026-05-03 22:21 25.94778 -79.91408 1974 ft 197 kts 116°
2026-05-03 22:21 25.94558 -79.89939 1979 ft 200 kts 80°
2026-05-03 22:22 25.95222 -79.88511 2255 ft 224 kts 41°
2026-05-03 22:22 25.96594 -79.87744 2847 ft 215 kts
2026-05-03 22:22 25.98016 -79.87605 2988 ft 207 kts
2026-05-03 22:22 25.99485 -79.87508 2998 ft 212 kts
2026-05-03 22:23 26.00949 -79.87405 2997 ft 213 kts
2026-05-03 22:23 26.02490 -79.87303 2993 ft 224 kts
2026-05-03 22:23 26.04044 -79.87200 2963 ft 225 kts
2026-05-03 22:23 26.05612 -79.87097 2982 ft 225 kts
2026-05-03 22:24 26.07185 -79.86986 2991 ft 226 kts
2026-05-03 22:24 26.08754 -79.86875 2990 ft 226 kts
2026-05-03 22:24 26.10309 -79.86768 2992 ft 227 kts 359°
2026-05-03 22:24 26.11796 -79.87206 2988 ft 219 kts 323°
2026-05-03 22:25 26.12769 -79.88448 3011 ft 213 kts 301°
2026-05-03 22:25 26.13577 -79.89857 3000 ft 216 kts 301°
2026-05-03 22:25 26.14378 -79.91266 2996 ft 215 kts 301°
2026-05-03 22:25 26.15174 -79.92668 2996 ft 214 kts 301°
2026-05-03 22:26 26.15962 -79.94055 2996 ft 215 kts 301°
2026-05-03 22:26 26.16779 -79.95492 3010 ft 217 kts 301°
2026-05-03 22:26 26.17599 -79.96924 3014 ft 219 kts 301°
2026-05-03 22:26 26.18410 -79.98338 3013 ft 221 kts 301°
2026-05-03 22:27 26.19228 -79.99783 2999 ft 219 kts 301°
2026-05-03 22:27 26.20029 -80.01214 2994 ft 217 kts 301°
2026-05-03 22:27 26.20669 -80.02721 2982 ft 216 kts 279°
2026-05-03 22:27 26.20861 -80.04372 2994 ft 215 kts 276°
2026-05-03 22:28 26.21025 -80.06007 2995 ft 210 kts 275°
2026-05-03 22:28 26.21201 -80.07640 3002 ft 216 kts 276°
2026-05-03 22:28 26.21325 -80.09303 2996 ft 213 kts 271°
2026-05-03 22:28 26.21360 -80.10966 3003 ft 217 kts 270°
2026-05-03 22:29 26.21387 -80.12631 3003 ft 213 kts 270°
2026-05-03 22:29 26.21414 -80.14295 2998 ft 217 kts 270°
2026-05-03 22:29 26.21437 -80.15969 2996 ft 215 kts 270°
2026-05-03 22:29 26.21460 -80.17595 2995 ft 215 kts 270°
2026-05-03 22:30 26.21365 -80.19257 2974 ft 214 kts 253°
2026-05-03 22:30 26.20891 -80.20801 2995 ft 215 kts 251°
2026-05-03 22:30 26.20381 -80.22393 3013 ft 214 kts 250°
2026-05-03 22:30 26.19897 -80.23928 2999 ft 211 kts 251°
2026-05-03 22:31 26.19396 -80.25478 2988 ft 210 kts 250°
2026-05-03 22:31 26.18902 -80.27018 2992 ft 210 kts 250°
2026-05-03 22:31 26.18422 -80.28536 3002 ft 211 kts 250°
2026-05-03 22:31 26.17936 -80.30076 2997 ft 214 kts 251°
2026-05-03 22:32 26.17419 -80.31639 3012 ft 216 kts 250°
2026-05-03 22:32 26.16917 -80.33211 3010 ft 214 kts 251°
2026-05-03 22:32 26.16419 -80.34760 2996 ft 212 kts 251°
2026-05-03 22:32 26.15917 -80.36326 3004 ft 215 kts 250°
2026-05-03 22:33 26.15436 -80.37910 3013 ft 217 kts 251°
2026-05-03 22:33 26.14922 -80.39507 2995 ft 219 kts 251°
2026-05-03 22:33 26.14402 -80.41083 2983 ft 216 kts 251°
2026-05-03 22:33 26.14062 -80.42682 2977 ft 215 kts 271°
2026-05-03 22:34 26.14205 -80.44326 2988 ft 211 kts 276°
2026-05-03 22:34 26.14370 -80.45938 2984 ft 209 kts 275°
2026-05-03 22:34 26.14548 -80.47576 2996 ft 214 kts 276°
2026-05-03 22:34 26.14725 -80.49221 3000 ft 214 kts 276°
2026-05-03 22:35 26.14902 -80.50863 2992 ft 213 kts 276°
2026-05-03 22:35 26.15077 -80.52507 3004 ft 214 kts 275°
2026-05-03 22:35 26.15254 -80.54150 3014 ft 212 kts 274°
2026-05-03 22:35 26.15321 -80.55762 3017 ft 209 kts 272°
2026-05-03 22:36 26.15341 -80.57384 2991 ft 213 kts 270°
2026-05-03 22:36 26.15366 -80.59006 2990 ft 210 kts 265°
2026-05-03 22:36 26.14788 -80.60489 3003 ft 213 kts 227°
2026-05-03 22:36 26.13483 -80.61237 3021 ft 219 kts 191°
2026-05-03 22:37 26.11954 -80.61057 3018 ft 223 kts 171°
2026-05-03 22:37 26.10428 -80.60677 3014 ft 227 kts 171°
2026-05-03 22:37 26.08947 -80.60134 2985 ft 226 kts 149°
2026-05-03 22:37 26.07955 -80.58781 3015 ft 232 kts 114°
2026-05-03 22:38 26.07406 -80.57086 3011 ft 234 kts 111°
2026-05-03 22:38 26.06880 -80.55369 3001 ft 235 kts 111°
2026-05-03 22:38 26.06359 -80.53645 3003 ft 236 kts 111°
2026-05-03 22:38 26.05831 -80.51914 2995 ft 236 kts 109°
2026-05-03 22:39 26.05766 -80.50100 2997 ft 238 kts 75°
2026-05-03 22:39 26.06277 -80.48340 3007 ft 241 kts 71°
2026-05-03 22:39 26.06816 -80.46603 2999 ft 238 kts 71°
2026-05-03 22:39 26.07300 -80.44831 2991 ft 240 kts 79°
2026-05-03 22:40 26.07518 -80.43002 3001 ft 239 kts 85°
2026-05-03 22:40 26.07646 -80.41161 2983 ft 233 kts 87°
2026-05-03 22:40 26.07727 -80.39479 2984 ft 206 kts 88°
2026-05-03 22:40 26.07777 -80.37891 3009 ft 209 kts 89°
2026-05-03 22:41 26.07817 -80.36297 2978 ft 203 kts 90°
2026-05-03 22:41 26.07844 -80.34718 2990 ft 203 kts 91°
2026-05-03 22:41 26.07860 -80.33133 2910 ft 213 kts 91°
2026-05-03 22:41 26.07855 -80.31467 2648 ft 213 kts 91°
2026-05-03 22:42 26.07843 -80.29831 2360 ft 211 kts 91°
2026-05-03 22:42 26.07814 -80.28225 2077 ft 209 kts 92°
2026-05-03 22:42 26.07785 -80.26627 1811 ft 206 kts 93°
2026-05-03 22:42 26.07750 -80.25052 1538 ft 200 kts 92°
2026-05-03 22:43 26.07739 -80.23547 1276 ft 185 kts 92°
2026-05-03 22:43 26.07734 -80.22202 1029 ft 164 kts 92°
2026-05-03 22:43 26.07718 -80.20974 823 ft 153 kts 90°
2026-05-03 22:43 26.07717 -80.19813 623 ft 147 kts 89°
2026-05-03 22:44 26.07709 -80.18703 431 ft 142 kts 89°
2026-05-03 22:44 26.07699 -80.17604 250 ft 141 kts 87°
2026-05-03 22:44 26.07695 -80.16501 63 ft 143 kts 88°
2026-05-03 22:44 26.07687 -80.15513 12 ft 105 kts 92°
2026-05-03 22:45 26.07684 -80.14894 18 ft 43 kts 95°
2026-05-03 22:45 26.07650 -80.14645 22 ft 23 kts 105°
2026-05-03 22:45 26.07609 -80.14552 21 ft 5 kts 128°
2026-05-03 22:45 26.07607 -80.14549 21 ft 0 kts 130°
2026-05-03 22:47 26.07597 -80.14536 21 ft 6 kts 130°
2026-05-03 22:47 26.07545 -80.14511 22 ft 10 kts 171°
2026-05-03 22:48 26.07501 -80.14493 22 ft 10 kts 133°
2026-05-03 22:48 26.07488 -80.14454 21 ft 5 kts 100°
2026-05-03 22:48 26.07485 -80.14400 20 ft 9 kts 91°
2026-05-03 22:48 26.07437 -80.14341 19 ft 9 kts 184°
2026-05-03 22:49 26.07412 -80.14342 20 ft 0 kts 181°